TimeGMT,TemperatureF,Dew PointF,Humidity,Sea Level PressureIn,VisibilityMPH,Wind Direction,Wind SpeedMPH,Gust SpeedMPH,PrecipitationIn,Events,Conditions,WindDirDegrees,DateUTC
12:00 AM,52,52,98,29.47,2,South,13.4,,,Rain,Light Drizzle,180,2012-11-20 00:00:00
12:00 AM,51.8,51.8,100,29.44,2.5,South,13.8,-,N/A,,Light Drizzle,180,2012-11-20 00:00:00
12:30 AM,51.8,51.8,100,29.44,1.1,South,15.0,-,N/A,,Light Drizzle,170,2012-11-20 00:30:00
1:00 AM,51.8,51.8,100,29.42,2.5,South,16.1,-,N/A,,Light Drizzle,170,2012-11-20 01:00:00
1:30 AM,51.8,51.8,100,29.42,0.2,SSE,17.3,28.8,N/A,Fog,Light Drizzle,160,2012-11-20 01:30:00
2:00 AM,51.8,51.8,100,29.39,0.3,SSE,18.4,-,N/A,Fog,Light Drizzle,160,2012-11-20 02:00:00
2:30 AM,51.8,51.8,100,29.39,3.1,South,17.3,28.8,N/A,Rain,Light Rain,170,2012-11-20 02:30:00
3:00 AM,51.8,51.8,100,29.36,1.1,South,18.4,-,N/A,Rain,Light Rain,170,2012-11-20 03:00:00
3:30 AM,51.8,51.8,100,29.36,1.6,South,18.4,-,N/A,Rain,Light Rain,170,2012-11-20 03:30:00
4:00 AM,51.8,51.8,100,29.33,1.1,South,18.4,-,N/A,Rain,Light Rain,170,2012-11-20 04:00:00
4:30 AM,51.8,51.8,100,29.30,1.0,South,17.3,-,N/A,Rain,Light Rain,170,2012-11-20 04:30:00
5:00 AM,51.8,51.8,100,29.30,1.2,South,16.1,-,N/A,Rain,Light Rain,170,2012-11-20 05:00:00
5:30 AM,51.8,51.8,100,29.30,1.0,South,19.6,-,N/A,Rain,Light Rain,170,2012-11-20 05:30:00
6:00 AM,48,48,100,29.33,12,NNW,6.7,,,Rain,Light Rain,330,2012-11-20 06:00:00
6:00 AM,48.2,48.2,100,29.30,6.2,NNW,5.8,-,N/A,Rain,Light Rain,330,2012-11-20 06:00:00
6:30 AM,46.4,46.4,100,29.33,6.2,WSW,5.8,-,N/A,Rain,Light Rain,250,2012-11-20 06:30:00
7:00 AM,46.4,46.4,100,29.33,6.2,SSW,9.2,-,N/A,,Mostly Cloudy,210,2012-11-20 07:00:00
7:30 AM,46.4,46.4,100,29.33,6.2,SSW,9.2,-,N/A,,Partly Cloudy,200,2012-11-20 07:30:00
8:00 AM,48.2,48.2,100,29.36,6.2,SSW,12.7,-,N/A,,Mostly Cloudy,210,2012-11-20 08:00:00
8:30 AM,48.2,48.2,100,29.36,6.2,SSW,13.8,-,N/A,,Mostly Cloudy,200,2012-11-20 08:30:00
9:00 AM,50.0,48.2,94,29.36,6.2,SSW,16.1,-,N/A,,Mostly Cloudy,200,2012-11-20 09:00:00
9:30 AM,50.0,50.0,100,29.39,6.2,SSW,19.6,-,N/A,,Mostly Cloudy,200,2012-11-20 09:30:00
10:00 AM,51.8,50.0,94,29.39,6.2,SSW,20.7,-,N/A,,Mostly Cloudy,200,2012-11-20 10:00:00
10:30 AM,51.8,48.2,88,29.39,6.2,SSW,26.5,-,N/A,,Scattered Clouds,210,2012-11-20 10:30:00
11:00 AM,51.8,46.4,82,29.42,6.2,SSW,24.2,-,N/A,,Partly Cloudy,210,2012-11-20 11:00:00
11:30 AM,50.0,44.6,82,29.42,6.2,SSW,27.6,-,N/A,,Scattered Clouds,210,2012-11-20 11:30:00
12:00 PM,49,43,74,29.44,19,SW,29.1,,,Rain,Light Rain Showers,220,2012-11-20 12:00:00
12:00 PM,50.0,42.8,76,29.42,6.2,SW,29.9,46.0,N/A,,Scattered Clouds,220,2012-11-20 12:00:00
12:30 PM,48.2,42.8,82,29.44,6.2,SW,25.3,36.8,N/A,,Mostly Cloudy,220,2012-11-20 12:30:00
1:00 PM,50.0,42.8,76,29.44,6.2,SW,27.6,40.3,N/A,,Scattered Clouds,220,2012-11-20 13:00:00
1:30 PM,50.0,42.8,76,29.44,6.2,SW,23.0,35.7,N/A,,Scattered Clouds,220,2012-11-20 13:30:00
2:00 PM,50.0,42.8,76,29.47,6.2,SW,24.2,40.3,N/A,,Scattered Clouds,220,2012-11-20 14:00:00
2:30 PM,50.0,42.8,76,29.47,6.2,SW,24.2,40.3,N/A,,Scattered Clouds,220,2012-11-20 14:30:00
3:00 PM,48.2,42.8,82,29.47,6.2,SW,24.2,35.7,N/A,,Partly Cloudy,220,2012-11-20 15:00:00
3:30 PM,48.2,42.8,82,29.50,6.2,SW,20.7,-,N/A,,Partly Cloudy,220,2012-11-20 15:30:00
4:00 PM,48.2,41.0,76,29.50,6.2,SW,23.0,-,N/A,,Partly Cloudy,220,2012-11-20 16:00:00
4:30 PM,46.4,41.0,81,29.53,6.2,SW,18.4,-,N/A,,Scattered Clouds,220,2012-11-20 16:30:00
5:00 PM,46.4,41.0,81,29.53,6.2,SW,13.8,-,N/A,,Mostly Cloudy,230,2012-11-20 17:00:00
5:30 PM,44.6,41.0,87,29.56,6.2,SW,11.5,-,N/A,,Mostly Cloudy,230,2012-11-20 17:30:00
6:00 PM,43,40,84,29.59,22,WSW,6.7,,,,Scattered Clouds,240,2012-11-20 18:00:00
6:00 PM,42.8,39.2,87,29.56,6.2,WSW,6.9,-,N/A,,Mostly Cloudy,240,2012-11-20 18:00:00
6:30 PM,44.6,41.0,87,29.56,6.2,WSW,16.1,-,N/A,,Mostly Cloudy,240,2012-11-20 18:30:00
7:00 PM,42.8,39.2,87,29.59,6.2,SW,9.2,-,N/A,,Mostly Cloudy,230,2012-11-20 19:00:00
7:30 PM,44.6,41.0,87,29.59,6.2,SW,9.2,-,N/A,,Mostly Cloudy,220,2012-11-20 19:30:00
8:00 PM,42.8,41.0,93,29.59,6.2,WSW,6.9,-,N/A,,Mostly Cloudy,250,2012-11-20 20:00:00
8:30 PM,41.0,39.2,93,29.62,6.2,SW,5.8,-,N/A,,Mostly Cloudy,220,2012-11-20 20:30:00
9:00 PM,41.0,39.2,93,29.62,6.2,SSW,5.8,-,N/A,,Mostly Cloudy,210,2012-11-20 21:00:00
9:30 PM,41.0,39.2,93,29.62,6.2,South,3.5,-,N/A,,Mostly Cloudy,170,2012-11-20 21:30:00
10:00 PM,41.0,41.0,100,29.62,6.2,Variable,3.5,-,N/A,,Mostly Cloudy,0,2012-11-20 22:00:00
10:30 PM,41.0,39.2,93,29.62,6.2,Variable,2.3,-,N/A,,Mostly Cloudy,0,2012-11-20 22:30:00
11:00 PM,41.0,39.2,93,29.62,6.2,Variable,1.2,-,N/A,,Mostly Cloudy,0,2012-11-20 23:00:00
11:30 PM,42.8,41.0,93,29.62,6.2,SE,3.5,-,N/A,,Mostly Cloudy,130,2012-11-20 23:30:00